Weather History for Keene, NH

Change the Weather History Date:

Monday, May 5, 2014

  Actual Average Record
Temperature  
Mean Temperature 50 °F -  
Max Temperature 57 °F 64 °F 92 °F (1944)
Min Temperature 44 °F 37 °F 23 °F (1933)
Degree Days  
Heating Degree Days 14    
Moisture  
Dew Point 36 °F    
Average Humidity 56    
Maximum Humidity 66    
Minimum Humidity 44    
Precipitation  
Precipitation 0.00 in - - ()
Sea Level Pressure  
Sea Level Pressure 29.80 in    
Wind  
Wind Speed 7 mph (NNW)    
Max Wind Speed 18 mph    
Max Gust Speed 26 mph    
Visibility 10 miles    
Events      
Averages and records for this station are not official NWS values.
T = Trace of Precipitation, MM = Missing Value Source: NWS Daily Summary

Daily Weather History Graph

Daily Weather History Graph

Search for Another Location

Airport:

Trip Planner

Search our weather history database for the weather conditions in past years. The results will help you decide how hot, cold, wet, or windy it might be!

Date:

Astronomy

May. 05, 2014 Rise Set
Actual Time 5:37 AM EDT 7:54 PM EDT
Civil Twilight 5:06 AM EDT 8:25 PM EDT
Nautical Twilight 4:27 AM EDT 9:04 PM EDT
Astronomical Twilight 3:44 AM EDT 9:48 PM EDT
Moon 10:55 AM EDT (5/5) 12:36 AM EDT (5/5)
Length of Visible Light 15h 19m
Length of Day
14h 16m
Waxing Crescent, 36% of the Moon is Illuminated
May 5
Waxing Crescent
May 6
First Quarter
May 14
Full
May 21
Last Quarter
May 28
New

Hourly Weather History & Observations

Time (EDT) Temp. Windchill Dew Point Humidity Pressure Visibility Wind Dir Wind Speed Gust Speed Precip Events Conditions
12:15 AM 46.4 °F 44.3 °F 35.6 °F 66% 29.68 in 10.0 mi NW 4.6 mph - N/A   Overcast
12:35 AM 46.4 °F 43.5 °F 35.6 °F 66% 29.68 in 10.0 mi NNW 5.8 mph - N/A   Overcast
12:55 AM 46.4 °F 43.5 °F 35.6 °F 66% 29.68 in 10.0 mi NW 5.8 mph - N/A   Overcast
1:15 AM 46.4 °F 45.2 °F 35.6 °F 66% 29.68 in 10.0 mi NW 3.5 mph - N/A   Overcast
1:35 AM 46.4 °F - 35.6 °F 66% 29.69 in 10.0 mi Calm Calm - N/A   Overcast
1:55 AM 48.2 °F - 35.6 °F 62% 29.69 in 10.0 mi NW 4.6 mph - N/A   Overcast
2:15 AM 48.2 °F - 35.6 °F 62% 29.69 in 10.0 mi NNW 4.6 mph - N/A   Overcast
2:35 AM 48.2 °F - 35.6 °F 62% 29.70 in 10.0 mi WNW 4.6 mph - N/A   Overcast
2:55 AM 48.2 °F - 35.6 °F 62% 29.70 in 10.0 mi Calm Calm - N/A   Overcast
3:15 AM 46.4 °F 45.2 °F 35.6 °F 66% 29.70 in 10.0 mi West 3.5 mph - N/A   Overcast
3:35 AM 48.2 °F - 35.6 °F 62% 29.71 in 10.0 mi NW 3.5 mph - N/A   Overcast
3:55 AM 48.2 °F - 35.6 °F 62% 29.71 in 10.0 mi NW 5.8 mph - N/A   Overcast
4:15 AM 48.2 °F - 37.4 °F 66% 29.72 in 10.0 mi NW 5.8 mph - N/A   Overcast
4:35 AM 48.2 °F - 37.4 °F 66% 29.72 in 10.0 mi North 6.9 mph - N/A   Overcast
4:55 AM 48.2 °F - 37.4 °F 66% 29.73 in 10.0 mi NNW 8.1 mph - N/A   Overcast
5:15 AM 48.2 °F - 37.4 °F 66% 29.73 in 10.0 mi NNW 5.8 mph - N/A   Overcast
5:35 AM 48.2 °F - 37.4 °F 66% 29.74 in 10.0 mi NNW 5.8 mph - N/A   Overcast
5:55 AM 48.2 °F - 37.4 °F 66% 29.75 in 10.0 mi NW 8.1 mph - N/A   Overcast
6:15 AM 48.2 °F - 37.4 °F 66% 29.77 in 10.0 mi NW 6.9 mph - N/A   Overcast
6:35 AM 50.0 °F - 37.4 °F 62% 29.77 in 10.0 mi WNW 5.8 mph - N/A   Overcast
6:55 AM 50.0 °F - 37.4 °F 62% 29.78 in 10.0 mi NNW 5.8 mph - N/A   Overcast
7:15 AM 51.8 °F - 37.4 °F 58% 29.78 in 10.0 mi NW 15.0 mph - N/A   Overcast
7:35 AM 51.8 °F - 37.4 °F 58% 29.79 in 10.0 mi NW 9.2 mph 20.7 mph N/A   Overcast
7:55 AM 51.8 °F - 37.4 °F 58% 29.80 in 10.0 mi NW 11.5 mph 17.3 mph N/A   Mostly Cloudy
8:15 AM 51.8 °F - 37.4 °F 58% 29.80 in 10.0 mi NW 11.5 mph - N/A   Scattered Clouds
8:35 AM 51.8 °F - 37.4 °F 58% 29.80 in 10.0 mi NW 10.4 mph - N/A   Scattered Clouds
8:55 AM 51.8 °F - 37.4 °F 58% 29.80 in 10.0 mi NNW 11.5 mph 17.3 mph N/A   Mostly Cloudy
9:15 AM 51.8 °F - 37.4 °F 58% 29.81 in 10.0 mi NNW 8.1 mph 17.3 mph N/A   Mostly Cloudy
9:35 AM 51.8 °F - 37.4 °F 58% 29.81 in 10.0 mi NW 10.4 mph 17.3 mph N/A   Overcast
9:55 AM 53.6 °F - 37.4 °F 54% 29.81 in 10.0 mi NNW 12.7 mph 19.6 mph N/A   Overcast
10:15 AM 53.6 °F - 37.4 °F 54% 29.82 in 10.0 mi NNW 18.4 mph 23.0 mph N/A   Mostly Cloudy
10:35 AM 55.4 °F - 37.4 °F 51% 29.82 in 10.0 mi NW 13.8 mph 26.5 mph N/A   Mostly Cloudy
10:55 AM 53.6 °F - 37.4 °F 54% 29.83 in 10.0 mi NW 12.7 mph 23.0 mph N/A   Mostly Cloudy
11:15 AM 55.4 °F - 37.4 °F 51% 29.84 in 10.0 mi NNW 15.0 mph 23.0 mph N/A   Scattered Clouds
11:35 AM 55.4 °F - 37.4 °F 51% 29.84 in 10.0 mi NW 10.4 mph 20.7 mph N/A   Mostly Cloudy
11:55 AM 53.6 °F - 37.4 °F 54% 29.84 in 10.0 mi NNW 13.8 mph 23.0 mph N/A   Overcast
12:15 PM 55.4 °F - 37.4 °F 51% 29.83 in 10.0 mi NW 13.8 mph 20.7 mph N/A   Overcast
12:35 PM 55.4 °F - 37.4 °F 51% 29.83 in 10.0 mi NNW 17.3 mph 21.9 mph N/A   Overcast
12:55 PM 55.4 °F - 37.4 °F 51% 29.83 in 10.0 mi North 12.7 mph 19.6 mph N/A   Overcast
1:15 PM 57.2 °F - 37.4 °F 48% 29.82 in 10.0 mi NNW 11.5 mph 20.7 mph N/A   Overcast
1:35 PM 57.2 °F - 37.4 °F 48% 29.82 in 10.0 mi North 12.7 mph 18.4 mph N/A   Overcast
2:15 PM 57.2 °F - 37.4 °F 48% 29.83 in 10.0 mi NNW 11.5 mph 20.7 mph N/A   Overcast
2:35 PM 57.2 °F - 35.6 °F 44% 29.82 in 10.0 mi NW 13.8 mph 19.6 mph N/A   Overcast
2:55 PM 57.2 °F - 35.6 °F 44% 29.82 in 10.0 mi NW 11.5 mph 17.3 mph N/A   Overcast
3:15 PM 57.2 °F - 37.4 °F 48% 29.82 in 10.0 mi North 13.8 mph 19.6 mph N/A   Mostly Cloudy
3:35 PM 57.2 °F - 37.4 °F 48% 29.82 in 10.0 mi NW 10.4 mph 21.9 mph N/A   Overcast
3:55 PM 57.2 °F - 35.6 °F 44% 29.82 in 10.0 mi NNW 13.8 mph 23.0 mph N/A   Overcast
4:15 PM 57.2 °F - 37.4 °F 48% 29.82 in 10.0 mi NW 13.8 mph 23.0 mph N/A   Overcast
4:35 PM 57.2 °F - 35.6 °F 44% 29.82 in 10.0 mi NW 8.1 mph 26.5 mph N/A   Overcast
4:55 PM 57.2 °F - 35.6 °F 44% 29.82 in 10.0 mi NNW 13.8 mph 23.0 mph N/A   Mostly Cloudy
5:15 PM 57.2 °F - 35.6 °F 44% 29.82 in 10.0 mi North 16.1 mph 21.9 mph N/A   Scattered Clouds
5:35 PM 57.2 °F - 35.6 °F 44% 29.83 in 10.0 mi NNW 10.4 mph 17.3 mph N/A   Clear
5:55 PM 57.2 °F - 37.4 °F 48% 29.83 in 10.0 mi North 9.2 mph 17.3 mph N/A   Clear
6:15 PM 57.2 °F - 35.6 °F 44% 29.83 in 10.0 mi North 10.4 mph - N/A   Clear
6:35 PM 55.4 °F - 35.6 °F 47% 29.83 in 10.0 mi North 11.5 mph 18.4 mph N/A   Partly Cloudy
6:55 PM 55.4 °F - 35.6 °F 47% 29.83 in 10.0 mi North 11.5 mph - N/A   Scattered Clouds
7:15 PM 55.4 °F - 35.6 °F 47% 29.84 in 10.0 mi NNW 9.2 mph 16.1 mph N/A   Partly Cloudy
7:35 PM 53.6 °F - 35.6 °F 51% 29.85 in 10.0 mi North 9.2 mph - N/A   Clear
7:55 PM 53.6 °F - 35.6 °F 51% 29.85 in 10.0 mi North 11.5 mph - N/A   Clear
8:15 PM 51.8 °F - 35.6 °F 54% 29.86 in 10.0 mi North 11.5 mph - N/A   Clear
8:35 PM 51.8 °F - 33.8 °F 50% 29.87 in 10.0 mi North 11.5 mph - N/A   Clear
8:55 PM 50.0 °F - 33.8 °F 54% 29.87 in 10.0 mi North 4.6 mph - N/A   Clear
9:15 PM 50.0 °F - 33.8 °F 54% 29.87 in 10.0 mi NNE 3.5 mph - N/A   Clear
9:35 PM 48.2 °F - 33.8 °F 58% 29.87 in 10.0 mi North 4.6 mph - N/A   Clear
9:55 PM 46.4 °F - 33.8 °F 62% 29.87 in 10.0 mi Calm Calm - N/A   Clear
10:15 PM 44.6 °F - 33.8 °F 66% 29.88 in 10.0 mi Calm Calm - N/A   Clear
10:35 PM 46.4 °F - 33.8 °F 62% 29.88 in 10.0 mi Calm Calm - N/A   Clear
10:55 PM 44.6 °F - 33.8 °F 66% 29.88 in 10.0 mi Calm Calm - N/A   Clear
11:15 PM 44.6 °F - 33.8 °F 66% 29.88 in 10.0 mi Calm Calm - N/A   Clear
11:35 PM 44.6 °F - 33.8 °F 66% 29.88 in 10.0 mi Calm Calm - N/A   Clear
11:55 PM 44.6 °F 43.1 °F 33.8 °F 66% 29.89 in 10.0 mi South 3.5 mph - N/A   Clear